Location: Harwich
(41.7160°N, 69.9939°W)
Time: 10:17:48
(UTC+01:00)

X-37B - Pass Details

Date: 13 December 2022
Orbit: 277 x 277 km, 45.0° (Epoch: 01 November)

Event Time Altitude Azimuth Distance (km) Brightness Sun altitude
Rises 23:01:06 0° 278° (W) 1,914 5.2 -9.4°
Reaches altitude 10° 23:03:06 10° 288° (WNW) 1,102 3.7 -9.7°
Maximum altitude 23:05:24 34° 357° (N) 478 0.9 -10.1°
Enters shadow 23:06:47 18° 55° (NE) 768 1.5 -10.4°
